"STATION_ID","USDM_WEEK","SMVWC_5_CM_MEAN","SMANOM_5_CM_MEAN","SMPERC_5_CM_30COUNTS","SMPERC_5_CM_70COUNTS","SMVWC_10_CM_MEAN","SMANOM_10_CM_MEAN","SMPERC_10_CM_30COUNTS","SMPERC_10_CM_70COUNTS","SMVWC_20_CM_MEAN","SMANOM_20_CM_MEAN","SMPERC_20_CM_30COUNTS","SMPERC_20_CM_70COUNTS","SMVWC_50_CM_MEAN","SMANOM_50_CM_MEAN","SMPERC_50_CM_30COUNTS","SMPERC_50_CM_70COUNTS","SMVWC_100_CM_MEAN","SMANOM_100_CM_MEAN","SMPERC_100_CM_30COUNTS","SMPERC_100_CM_70COUNTS","SMVWC_TOP_MEAN","SMANOM_TOP_MEAN","SMPERC_TOP_30COUNTS","SMPERC_TOP_70COUNTS","SMVWC_COLUMN_MEAN","SMANOM_COLUMN_MEAN","SMPERC_COLUMN_30COUNTS","SMPERC_COLUMN_70COUNTS"
1570,20090630,0.225,-0.304,0.194,0,0.295,-0.127,0,0,0.278,-0.225,0,0,0.352,-0.631,1,0,0.412,-0.831,1,0,0.26,-0.207,0,0,0.312,-0.238,0,0
1570,20090707,0.196,-0.401,0.702,0,0.262,-0.28,0,0,0.234,-0.414,0.06,0,0.348,-0.567,1,0,0.423,-0.31,0.607,0,0.229,-0.338,0.577,0,0.292,-0.336,0.506,0
1570,20090714,0.217,-0.219,0.155,0,0.269,-0.178,0,0,0.233,-0.307,0,0,0.343,-0.491,0.982,0,0.424,-0.121,0,0,0.243,-0.191,0.036,0,0.297,-0.191,0,0
1570,20090721,0.32,0.368,0,0.327,0.359,0.484,0,0.583,0.346,0.396,0,0.476,0.392,0.261,0.286,0.31,0.429,0.113,0,0,0.339,0.44,0,0.429,0.369,0.454,0,0.363
1570,20090728,0.381,0.776,0,0.911,0.402,0.9,0,0.97,0.392,0.769,0,0.964,0.445,1.098,0,0.905,0.432,0.233,0,0,0.392,0.855,0,0.964,0.41,0.854,0,0.964
1570,20090804,0.412,1.048,0,1,0.426,1.193,0,1,0.41,1.004,0,1,0.454,1.303,0,1,0.435,0.382,0,0.024,0.419,1.133,0,1,0.427,1.102,0,1
1570,20090811,0.347,0.786,0,1,0.385,0.951,0,1,0.373,0.84,0,1,0.414,0.803,0,1,0.434,0.459,0,0.423,0.366,0.849,0,1,0.391,0.83,0,1
1570,20090818,0.265,0.358,0,0.339,0.329,0.73,0,1,0.332,0.724,0,1,0.378,0.358,0,1,0.433,0.506,0,0.679,0.297,0.535,0,0.762,0.347,0.57,0,0.988
1570,20090825,0.208,0.045,0,0,0.283,0.523,0,0.929,0.286,0.561,0,1,0.366,0.273,0,0.655,0.431,0.499,0,0.804,0.245,0.262,0,0.238,0.315,0.363,0,0.53
1570,20090901,0.167,-0.195,0,0,0.243,0.212,0,0.185,0.237,0.27,0,0.327,0.356,0.171,0,0,0.427,0.424,0,0.274,0.205,-0.044,0,0,0.286,0.111,0,0
1570,20090908,0.134,-0.42,0.506,0,0.208,-0.116,0,0,0.188,-0.149,0.012,0,0.345,0.042,0,0,0.425,0.385,0,0.095,0.171,-0.321,0.06,0,0.26,-0.192,0,0
1570,20090915,0.191,-0.049,0.173,0,0.242,0.138,0,0.143,0.189,-0.147,0.179,0,0.339,-0.058,0,0,0.422,0.318,0,0,0.217,0.038,0.161,0.119,0.277,-0.017,0,0
1570,20090922,0.395,1.443,0,1,0.413,1.352,0,1,0.387,1.197,0,0.899,0.426,0.949,0,0.643,0.426,0.388,0,0.071,0.404,1.431,0,1,0.409,1.383,0,0.964
1570,20090929,0.455,1.524,0,1,0.463,1.347,0,1,0.437,1.242,0,1,0.466,1.375,0,1,0.432,0.565,0,0.804,0.459,1.455,0,1,0.451,1.462,0,1
1570,20091006,0.378,0.773,0,1,0.398,0.743,0,1,0.389,0.653,0,1,0.422,0.731,0,0.899,0.432,0.624,0,0.994,0.389,0.804,0,1,0.404,0.824,0,1
1570,20091013,0.384,0.693,0,1,0.407,0.688,0,1,0.405,0.61,0,1,0.437,0.917,0,1,0.432,0.675,0,1,0.396,0.714,0,1,0.413,0.77,0,1
1570,20091020,0.406,0.567,0,0.753,0.423,0.81,0,1,0.412,0.701,0,1,0.444,0.947,0,1,0.431,0.712,0,1,0.415,0.677,0,0.91,0.423,0.765,0,1
1570,20091027,0.388,0.48,0,0.625,0.403,0.518,0,0.732,0.398,0.589,0,1,0.424,0.506,0,1,0.43,0.706,0,1,0.396,0.505,0,0.625,0.409,0.55,0,1
1570,20091103,0.443,0.811,0,0.923,0.45,1.007,0,1,0.429,0.907,0,1,0.442,0.632,0,0.976,0.43,0.616,0,1,0.447,0.898,0,0.946,0.439,0.835,0,0.982
1570,20091110,0.361,0.128,0,0,0.38,0.166,0,0.018,0.379,0.171,0,0.143,0.417,0.19,0,0.345,0.431,0.457,0,0.851,0.371,0.146,0,0,0.394,0.179,0,0
1570,20091117,0.347,-0.129,0,0,0.371,-0.075,0,0,0.369,-0.061,0,0,0.385,-0.492,0.405,0,0.43,0.175,0,0.006,0.359,-0.108,0,0,0.38,-0.114,0,0
1570,20091124,0.348,-0.308,0.262,0,0.37,-0.209,0,0,0.37,-0.129,0,0,0.397,-0.496,0.613,0,0.43,0.07,0,0,0.359,-0.266,0.06,0,0.383,-0.259,0.083,0
1570,20091201,0.389,0.04,0.613,0.262,0.399,0.227,0.429,0.262,0.389,0.146,0.333,0.262,0.408,-0.317,0.738,0.256,0.431,0.022,0,0.042,0.394,0.115,0.56,0.262,0.403,0.035,0.583,0.262
1570,20091208,0.403,0.127,0,0.244,0.414,0.359,0.107,0.435,0.411,0.422,0,0.613,0.431,0.421,0,0.482,0.436,0.121,0,0,0.409,0.229,0,0.387,0.419,0.233,0,0.387
1570,20091215,0.465,0.775,0.018,0.595,0.458,0.911,0.018,0.702,0.431,0.664,0,0.619,0.459,1.685,0,0.732,0.434,-0.085,0.042,0,0.462,0.825,0,0.625,0.45,0.829,0,0.643
1570,20091222,0.384,-0.366,0.81,0,0.395,-0.254,0.744,0.036,0.396,-0.19,0.476,0,0.425,-0.028,0,0.006,0.433,-0.296,0.798,0,0.39,-0.316,0.774,0,0.407,-0.26,0.702,0
1570,20091229,0.418,0.177,0.28,0.238,0.426,0.372,0.185,0.417,0.415,0.26,0.173,0.351,0.437,0.628,0,0.298,0.433,-0.412,0.935,0,0.423,0.253,0.226,0.351,0.426,0.252,0.22,0.315
1570,20100105,0.398,-0.115,0.452,0.137,0.412,0.073,0.351,0.298,0.401,-0.125,0.411,0.083,0.426,0.002,0,0.089,0.432,-0.444,1,0,0.405,-0.039,0.417,0.214,0.414,-0.084,0.482,0.125
1570,20100112,0.354,-0.702,1,0,0.375,-0.589,1,0,0.37,-0.798,1,0,0.407,-0.909,0.905,0,0.432,-0.447,1,0,0.365,-0.661,1,0,0.388,-0.742,1,0
1570,20100119,0.408,0.092,0.595,0.38,0.412,0.129,0.613,0.374,0.395,-0.187,0.62,0.374,0.416,-0.41,0.632,0.368,0.429,-0.593,1,0,0.41,0.101,0.613,0.38,0.412,-0.105,0.62,0.374
1570,20100126,0.496,1.316,0,1,0.475,1.297,0,1,0.439,0.899,0,0.982,0.453,1.526,0,0.774,0.431,-0.647,1,0,0.486,1.318,0,1,0.459,1.105,0,0.97
1570,20100202,0.441,0.531,0,0.381,0.432,0.45,0,0.429,0.417,0.391,0.024,0.345,0.434,0.593,0,0.292,0.431,-0.609,1,0,0.437,0.504,0,0.429,0.431,0.382,0,0.327
1570,20100209,0.459,0.758,0,0.542,0.446,0.731,0,0.589,0.427,0.662,0,0.571,0.441,0.93,0,0.5,0.431,-0.633,1,0,0.453,0.755,0,0.577,0.441,0.642,0,0.53
1570,20100216,0.47,0.85,0,0.744,0.464,0.993,0,0.964,0.434,0.764,0,0.72,0.447,1.124,0,0.643,0.431,-0.693,1,0,0.468,0.92,0,0.899,0.449,0.817,0,0.708
1570,20100223,0.424,0.249,0,0.22,0.418,0.135,0,0.262,0.408,0.069,0.304,0.19,0.426,0.094,0,0.196,0.43,-0.751,1,0,0.421,0.198,0,0.214,0.421,0.059,0.036,0.202
1570,20100302,0.398,-0.136,0.363,0.03,0.398,-0.236,0.601,0.077,0.392,-0.366,0.661,0,0.418,-0.302,0.565,0,0.431,-0.831,1,0,0.398,-0.183,0.476,0.048,0.408,-0.332,0.643,0
1570,20100309,0.38,-0.324,0.988,0,0.384,-0.451,0.994,0,0.375,-0.68,1,0,0.414,-0.502,1,0,0.432,-0.937,1,0,0.382,-0.381,0.988,0,0.397,-0.564,0.994,0
1570,20100316,0.438,0.701,0,0.655,0.444,0.77,0,0.714,0.417,0.366,0,0.369,0.426,0.205,0.065,0.262,0.432,-0.955,1,0,0.441,0.747,0,0.649,0.432,0.433,0,0.548
1570,20100323,0.428,0.663,0.024,0.321,0.422,0.429,0,0.315,0.404,0.126,0.393,0.315,0.424,0.127,0.202,0.22,0.433,-0.928,1,0,0.425,0.559,0,0.321,0.422,0.288,0.238,0.315
1570,20100330,0.424,0.598,0,0.571,0.436,0.854,0,0.667,0.416,0.534,0,0.583,0.42,-0.124,0.28,0.107,0.435,-0.823,1,0,0.43,0.722,0,0.643,0.426,0.499,0,0.518
1570,20100406,0.381,-0.112,0.298,0.107,0.408,0.273,0,0.196,0.396,0.042,0.256,0.304,0.418,-0.241,0.482,0.107,0.436,-0.736,1,0,0.395,0.061,0.012,0.155,0.408,-0.03,0.304,0.143
1570,20100413,0.367,-0.381,0.702,0.113,0.405,0.157,0.173,0.179,0.391,-0.091,0.595,0.25,0.427,0.207,0.226,0.28,0.438,-0.683,1,0,0.386,-0.149,0.56,0.155,0.406,-0.125,0.613,0.155
1570,20100420,0.313,-1.191,1,0,0.376,-0.446,1,0,0.366,-0.639,1,0,0.383,-1.954,1,0,0.437,-0.752,1,0,0.345,-0.872,1,0,0.375,-0.946,1,0
1570,20100427,0.363,-0.339,0.518,0.19,0.407,0.3,0.5,0.369,0.392,0.054,0.518,0.464,0.408,-0.767,0.518,0.262,0.432,-0.941,1,0,0.385,-0.081,0.512,0.304,0.4,-0.198,0.518,0.268
1570,20100504,0.4,0.298,0.425,0.293,0.424,0.77,0,0.389,0.403,0.407,0.126,0.407,0.436,0.521,0.168,0.389,0.434,-0.719,1,0,0.412,0.495,0.263,0.335,0.42,0.374,0.263,0.329
1570,20100511,0.336,-0.568,0.696,0,0.386,0.013,0.03,0.065,0.372,-0.173,0.524,0.006,0.404,-0.586,0.601,0.012,0.435,-0.641,1,0,0.361,-0.318,0.536,0,0.387,-0.373,0.565,0
1570,20100518,0.338,-0.316,0.232,0,0.382,0.084,0,0,0.368,-0.086,0,0,0.4,-0.487,0.673,0,0.434,-0.578,0.958,0,0.361,-0.14,0.03,0,0.385,-0.216,0.22,0
1570,20100525,0.324,-0.389,0.405,0,0.377,0.073,0,0.077,0.362,-0.128,0,0,0.383,-0.86,1,0,0.435,-0.51,0.786,0,0.351,-0.197,0.107,0.006,0.376,-0.296,0.452,0
1570,20100601,0.359,0.123,0.083,0.161,0.4,0.55,0,0.452,0.384,0.389,0,0.381,0.41,-0.054,0.613,0.387,0.439,-0.316,0.5,0,0.38,0.322,0,0.333,0.398,0.296,0.012,0.357
1570,20100608,0.334,0.028,0,0,0.379,0.34,0,0.643,0.365,0.193,0,0.065,0.4,-0.163,0.524,0.304,0.441,-0.091,0.012,0,0.357,0.162,0,0.036,0.384,0.166,0,0.071
1570,20100615,0.297,-0.122,0.131,0,0.357,0.149,0,0.089,0.342,0.001,0,0,0.374,-0.561,1,0,0.436,-0.137,0.143,0,0.327,-0.003,0,0.006,0.361,-0.042,0,0
1570,20100622,0.21,-0.571,0.994,0,0.29,-0.347,0.202,0,0.288,-0.389,0.339,0,0.362,-0.594,1,0,0.433,-0.161,0.22,0,0.251,-0.481,0.863,0,0.317,-0.43,0.875,0
1570,20100629,0.144,-0.885,1,0,0.226,-0.735,1,0,0.201,-0.881,1,0,0.346,-0.77,1,0,0.428,-0.245,0.637,0,0.185,-0.812,1,0,0.269,-0.767,1,0
1570,20100706,0.113,-0.955,1,0,0.185,-0.911,1,0,0.154,-1.057,1,0,0.326,-0.989,1,0,0.425,-0.239,0.208,0,0.15,-0.936,1,0,0.241,-0.932,1,0
1570,20100713,0.133,-0.721,0.952,0,0.182,-0.819,1,0,0.148,-0.882,1,0,0.302,-1.168,1,0,0.419,-0.282,0.565,0,0.158,-0.77,0.982,0,0.237,-0.785,1,0
1570,20100720,0.248,-0.058,0.262,0.089,0.324,0.225,0,0.286,0.317,0.212,0,0.262,0.362,-0.191,0.476,0.167,0.427,0.025,0.214,0,0.286,0.08,0,0.125,0.336,0.144,0,0.173
1570,20100727,0.211,-0.273,0.506,0.06,0.287,0.003,0.024,0.06,0.289,0.027,0,0.06,0.365,-0.113,0,0.06,0.422,-0.082,0,0,0.249,-0.144,0.321,0.06,0.315,-0.058,0.179,0.06
1570,20100803,0.29,0.272,0,0.072,0.355,0.638,0,0.886,0.35,0.568,0,0.892,0.387,0.28,0,0.198,0.429,0.173,0,0.012,0.323,0.449,0,0.473,0.362,0.461,0,0.521
1570,20100810,0.185,-0.313,0.53,0,0.266,0.065,0,0,0.272,0.149,0,0,0.36,-0.063,0,0,0.42,-0.042,0,0,0.226,-0.153,0.173,0,0.3,-0.073,0,0
1570,20100817,0.139,-0.552,0.994,0,0.213,-0.292,0.298,0,0.201,-0.278,0.179,0,0.342,-0.271,0,0,0.416,-0.079,0,0,0.176,-0.453,0.75,0,0.262,-0.399,0.387,0
1570,20100824,0.152,-0.383,0.673,0,0.226,-0.07,0.429,0.327,0.21,-0.1,0.673,0.321,0.333,-0.339,0.155,0,0.413,-0.066,0,0,0.189,-0.259,0.631,0.071,0.267,-0.261,0.601,0.089
1570,20100831,0.16,-0.263,0.232,0,0.229,0.054,0,0.089,0.231,0.184,0,0.25,0.33,-0.277,0,0,0.41,-0.097,0,0,0.195,-0.154,0,0,0.272,-0.088,0,0
1570,20100907,0.136,-0.393,0.536,0,0.196,-0.234,0.137,0,0.184,-0.188,0.125,0,0.319,-0.357,0.036,0,0.406,-0.158,0.018,0,0.166,-0.361,0.363,0,0.248,-0.335,0.25,0
1570,20100914,0.11,-0.672,1,0,0.174,-0.479,1,0,0.152,-0.478,1,0,0.308,-0.461,0.345,0,0.402,-0.247,0.298,0,0.142,-0.613,1,0,0.229,-0.593,1,0
1570,20100921,0.099,-0.815,1,0,0.162,-0.511,1,0,0.137,-0.479,1,0,0.296,-0.562,1,0,0.397,-0.33,0.875,0,0.131,-0.731,1,0,0.218,-0.681,1,0
1570,20100928,0.114,-0.743,0.923,0,0.158,-0.547,1,0,0.132,-0.503,1,0,0.282,-0.811,1,0,0.392,-0.419,1,0,0.136,-0.652,0.994,0,0.216,-0.696,1,0
1570,20101005,0.104,-0.835,1,0,0.158,-0.595,1,0,0.131,-0.732,1,0,0.273,-1.108,1,0,0.389,-0.432,1,0,0.131,-0.693,1,0,0.211,-0.81,1,0
1570,20101012,0.087,-0.93,1,0,0.15,-0.753,1,0,0.126,-0.902,1,0,0.266,-1.411,1,0,0.387,-0.443,1,0,0.119,-0.839,1,0,0.203,-0.986,1,0
1570,20101019,0.083,-1.167,1,0,0.148,-1.273,1,0,0.125,-1.362,1,0,0.263,-1.52,1,0,0.385,-0.434,1,0,0.116,-1.279,1,0,0.201,-1.356,1,0
1570,20101026,0.104,-1.34,1,0,0.172,-1.45,1,0,0.141,-1.784,1,0,0.267,-1.326,1,0,0.383,-0.463,1,0,0.138,-1.399,1,0,0.213,-1.439,1,0
1570,20101102,0.168,-1.19,1,0,0.25,-1.103,1,0,0.218,-1.43,1,0,0.281,-1.186,1,0,0.382,-0.541,1,0,0.209,-1.155,1,0,0.26,-1.167,1,0
1570,20101109,0.236,-1.085,0.994,0,0.295,-0.981,0.964,0,0.306,-0.7,0.708,0,0.332,-0.764,0.976,0,0.392,-0.503,0.607,0,0.266,-1.041,0.982,0,0.312,-0.795,0.958,0
1570,20101116,0.221,-1.495,0.982,0,0.29,-1.472,0.994,0,0.288,-1.454,0.994,0,0.329,-1.386,1,0,0.382,-1.182,1,0,0.255,-1.485,0.988,0,0.302,-1.299,1,0
1570,20101123,0.273,-1.245,0.994,0,0.337,-0.863,0.988,0,0.334,-0.876,1,0,0.349,-1.609,1,0,0.38,-1.516,1,0,0.305,-1.086,0.988,0,0.335,-1.233,1,0
1570,20101130,0.329,-0.693,0.815,0.119,0.375,-0.221,0.667,0.149,0.373,-0.187,0.565,0.202,0.407,-0.332,0.351,0.196,0.412,-0.588,0.375,0,0.352,-0.503,0.78,0.143,0.379,-0.467,0.732,0.137
1570,20101207,0.313,-0.997,0.929,0,0.367,-0.516,0.815,0.077,0.371,-0.416,0.702,0.018,0.416,-0.316,0.381,0.03,0.434,0.023,0,0,0.34,-0.801,0.893,0.03,0.38,-0.676,0.839,0.024
1570,20101214,0.345,-0.764,0.76,0.168,0.383,-0.395,0.677,0.21,0.38,-0.377,0.587,0.192,0.415,-0.451,0.593,0.281,0.435,-0.016,0,0,0.364,-0.612,0.731,0.192,0.392,-0.529,0.683,0.198
1570,20101221,0.325,-1.163,1,0,0.372,-0.654,0.964,0,0.38,-0.509,0.952,0,0.417,-0.45,0.839,0,0.441,0.124,0,0,0.348,-0.934,1,0,0.387,-0.717,1,0
1570,20101228,0.3,-1.494,1,0,0.353,-0.984,1,0,0.36,-0.918,1,0,0.41,-0.744,1,0,0.443,0.085,0,0,0.327,-1.289,1,0,0.373,-1.07,1,0
1570,20110104,0.312,-1.255,1,0,0.365,-0.737,0.875,0.054,0.369,-0.772,0.827,0,0.413,-0.629,0.78,0,0.442,-0.01,0,0,0.339,-1.049,0.94,0,0.38,-0.874,0.929,0
1570,20110111,0.312,-1.243,1,0,0.363,-0.803,1,0,0.372,-0.757,1,0,0.412,-0.661,1,0,0.44,-0.163,0,0,0.338,-1.066,1,0,0.38,-0.925,1,0
1570,20110118,0.336,-0.929,0.702,0,0.384,-0.402,0.619,0.333,0.377,-0.608,0.619,0,0.415,-0.475,0.625,0.024,0.44,-0.183,0,0,0.36,-0.707,0.619,0.018,0.39,-0.653,0.619,0
1570,20110125,0.356,-0.641,0.845,0,0.407,0.012,0.179,0.179,0.394,-0.236,0.149,0,0.418,-0.248,0.143,0,0.441,-0.208,0.167,0,0.381,-0.357,0.631,0,0.403,-0.338,0.649,0
1570,20110201,0.403,0.022,0.518,0.298,0.424,0.307,0.22,0.411,0.42,0.463,0,0.446,0.441,0.911,0,0.673,0.443,-0.119,0.012,0,0.413,0.15,0.44,0.333,0.426,0.262,0.321,0.375
1570,20110208,0.388,-0.178,0.613,0.208,0.417,0.195,0.238,0.363,0.413,0.279,0,0.286,0.425,0.188,0,0.208,0.447,0.016,0,0,0.403,-0.014,0.47,0.232,0.418,0.05,0.28,0.238
1570,20110215,0.332,-0.87,1,0,0.377,-0.536,0.839,0,0.388,-0.385,0.577,0,0.413,-0.407,0.786,0,0.448,-0.006,0,0,0.354,-0.736,0.964,0,0.391,-0.629,0.952,0
1570,20110222,0.309,-1.211,1,0,0.361,-0.835,1,0,0.367,-0.857,1,0,0.409,-0.606,1,0,0.448,-0.028,0,0,0.335,-1.06,1,0,0.379,-0.937,1,0
1570,20110301,0.366,-0.55,0.708,0.119,0.404,-0.151,0.53,0.22,0.394,-0.314,0.488,0.125,0.421,-0.192,0.548,0.089,0.447,-0.132,0.185,0,0.385,-0.378,0.613,0.155,0.406,-0.357,0.607,0.125
1570,20110308,0.384,-0.286,0.643,0.179,0.413,0.055,0.399,0.315,0.405,-0.071,0.429,0.161,0.42,-0.243,0.601,0.131,0.453,0.04,0,0,0.399,-0.139,0.536,0.214,0.415,-0.145,0.506,0.179
1570,20110315,0.392,-0.187,0.619,0.286,0.416,0.168,0.369,0.351,0.409,0.142,0.155,0.304,0.423,-0.032,0.524,0.232,0.455,0.214,0,0.143,0.405,-0.017,0.554,0.31,0.419,0.03,0.452,0.304
1570,20110322,0.31,-1.574,1,0,0.362,-0.858,1,0,0.366,-0.875,0.994,0,0.402,-1.206,1,0,0.449,-0.064,0.226,0.31,0.337,-1.235,1,0,0.378,-1.075,1,0
1570,20110329,0.318,-1.355,0.786,0.071,0.373,-0.583,0.631,0.226,0.368,-0.797,0.631,0.095,0.399,-1.406,0.774,0.101,0.44,-0.551,0.821,0,0.346,-0.998,0.708,0.131,0.379,-1.011,0.708,0.107
1570,20110405,0.354,-0.581,0.732,0.101,0.396,0.004,0.339,0.25,0.392,-0.075,0.31,0.137,0.42,-0.116,0.19,0.107,0.451,0.102,0,0,0.375,-0.33,0.625,0.202,0.403,-0.21,0.417,0.202
1570,20110412,0.336,-0.872,0.804,0.006,0.386,-0.253,0.649,0.167,0.382,-0.343,0.56,0.024,0.418,-0.223,0.542,0.06,0.453,0.155,0,0,0.361,-0.612,0.738,0.077,0.395,-0.448,0.685,0.071
1570,20110419,0.36,-0.483,0.78,0.125,0.398,0.027,0.512,0.179,0.396,0.043,0.298,0.161,0.425,0.004,0.363,0.173,0.451,0.023,0,0,0.379,-0.261,0.679,0.155,0.406,-0.116,0.548,0.155
1570,20110426,0.376,-0.173,0.619,0.22,0.408,0.293,0.351,0.304,0.397,0.13,0.286,0.208,0.428,0.137,0.214,0.22,0.454,0.162,0,0,0.392,0.016,0.518,0.256,0.413,0.09,0.405,0.238
1570,20110503,0.412,0.397,0.47,0.387,0.424,0.704,0.131,0.446,0.411,0.533,0.054,0.47,0.438,0.62,0,0.393,0.457,0.349,0,0.702,0.418,0.512,0.405,0.411,0.428,0.56,0.25,0.417
1570,20110510,0.347,-0.426,0.732,0.107,0.385,-0.027,0.53,0.167,0.382,0.011,0.53,0.202,0.414,-0.228,0.375,0.137,0.45,0.09,0.006,0.482,0.366,-0.252,0.667,0.131,0.396,-0.164,0.542,0.143
1570,20110517,0.354,-0.128,0.417,0.292,0.393,0.306,0.411,0.417,0.386,0.293,0.417,0.518,0.409,-0.284,0.429,0.232,0.444,-0.143,0.054,0,0.374,0.093,0.411,0.345,0.397,0.064,0.417,0.363
1570,20110524,0.307,-0.635,0.768,0,0.36,-0.309,0.256,0,0.362,-0.152,0.196,0,0.394,-0.551,0.762,0,0.44,-0.316,0.161,0,0.334,-0.503,0.702,0,0.373,-0.405,0.667,0
1570,20110531,0.253,-1.174,1,0,0.33,-0.782,1,0,0.335,-0.651,1,0,0.378,-0.898,1,0,0.432,-0.662,1,0,0.292,-1.023,1,0,0.346,-0.91,1,0
1570,20110607,0.155,-1.901,1,0,0.241,-1.909,1,0,0.265,-1.767,1,0,0.364,-1.142,1,0,0.43,-0.661,1,0,0.199,-1.904,1,0,0.291,-1.724,1,0
1570,20110614,0.111,-1.71,1,0,0.177,-1.978,1,0,0.178,-2.334,1,0,0.348,-1.177,1,0,0.427,-0.607,1,0,0.144,-1.784,1,0,0.248,-1.784,1,0
1570,20110621,0.206,-0.65,0.452,0.042,0.268,-0.622,0.429,0.089,0.258,-0.843,0.429,0.119,0.357,-0.73,0.839,0.006,0.429,-0.336,0.744,0,0.237,-0.642,0.429,0.054,0.303,-0.679,0.429,0.077
1570,20110628,0.273,-0.007,0.018,0.089,0.344,0.245,0,0.357,0.345,0.278,0,0.506,0.385,-0.048,0.018,0.101,0.433,-0.099,0.244,0,0.309,0.125,0,0.185,0.356,0.223,0,0.375
1570,20110705,0.233,-0.174,0.143,0.024,0.311,0.11,0,0.298,0.316,0.177,0,0.399,0.371,-0.185,0,0,0.423,-0.321,0.964,0,0.272,-0.03,0,0.125,0.331,0.07,0,0.208
1570,20110712,0.186,-0.404,0.524,0,0.269,-0.185,0,0,0.27,-0.078,0,0,0.359,-0.254,0,0,0.419,-0.309,0.804,0,0.227,-0.299,0.202,0,0.3,-0.172,0,0
1570,20110719,0.16,-0.581,0.923,0,0.228,-0.478,0.625,0,0.219,-0.431,0.286,0,0.354,-0.308,0,0,0.414,-0.385,1,0,0.194,-0.539,0.917,0,0.275,-0.419,0.643,0
1570,20110726,0.12,-0.832,1,0,0.189,-0.768,1,0,0.174,-0.775,1,0,0.343,-0.453,0.863,0,0.411,-0.451,1,0,0.155,-0.809,1,0,0.247,-0.701,1,0
1570,20110802,0.104,-0.891,1,0,0.167,-0.818,1,0,0.148,-0.904,1,0,0.327,-0.626,1,0,0.409,-0.499,1,0,0.136,-0.867,1,0,0.231,-0.82,1,0
1570,20110809,0.094,-0.921,1,0,0.156,-0.751,1,0,0.135,-0.778,1,0,0.305,-0.931,1,0,0.404,-0.64,1,0,0.125,-0.86,1,0,0.219,-0.881,1,0
1570,20110816,0.107,-0.776,1,0,0.167,-0.668,1,0,0.136,-0.752,1,0,0.291,-1.115,1,0,0.399,-0.651,1,0,0.137,-0.755,1,0,0.22,-0.85,1,0
1570,20110823,0.116,-0.665,1,0,0.168,-0.666,1,0,0.136,-0.753,1,0,0.282,-1.259,1,0,0.395,-0.656,1,0,0.142,-0.694,1,0,0.22,-0.871,1,0
1570,20110830,0.094,-0.79,1,0,0.151,-0.779,1,0,0.13,-0.799,1,0,0.273,-1.269,1,0,0.392,-0.66,1,0,0.123,-0.848,1,0,0.208,-0.947,1,0
1570,20110906,0.092,-0.734,0.988,0,0.15,-0.708,0.862,0,0.124,-0.775,1,0,0.26,-1.263,1,0,0.388,-0.715,1,0,0.122,-0.782,0.946,0,0.203,-0.912,1,0
1570,20110913,0.117,-0.608,0.988,0,0.17,-0.524,0.756,0,0.143,-0.575,0.756,0,0.255,-1.189,1,0,0.383,-0.767,1,0,0.144,-0.597,0.976,0,0.214,-0.797,0.994,0
1570,20110920,0.15,-0.416,0.863,0.125,0.206,-0.189,0.649,0.131,0.191,-0.124,0.768,0.131,0.275,-0.818,0.875,0.119,0.389,-0.546,0.881,0.107,0.179,-0.353,0.857,0.131,0.242,-0.43,0.863,0.125
1570,20110927,0.265,0.334,0,0.315,0.34,0.645,0,1,0.341,0.75,0,1,0.376,0.327,0,0.56,0.406,-0.089,0.565,0.167,0.303,0.495,0,0.661,0.346,0.568,0,0.804
1570,20111004,0.217,-0.149,0,0,0.298,0.227,0,0.185,0.302,0.259,0,0.381,0.361,0.006,0,0,0.385,-0.539,1,0,0.258,0.07,0,0,0.313,0.084,0,0
1570,20111011,0.181,-0.399,0,0,0.265,-0.096,0,0,0.271,-0.103,0,0,0.351,-0.247,0,0,0.383,-0.554,1,0,0.223,-0.225,0,0,0.29,-0.237,0,0
1570,20111018,0.174,-0.636,0.845,0,0.251,-0.428,0.423,0,0.256,-0.37,0.167,0,0.346,-0.376,0,0,0.382,-0.509,1,0,0.213,-0.589,0.768,0,0.282,-0.529,0.53,0
1570,20111025,0.183,-0.81,1,0,0.244,-0.806,1,0,0.247,-0.771,1,0,0.341,-0.454,0,0,0.381,-0.51,1,0,0.214,-0.818,1,0,0.279,-0.755,1,0
1570,20111101,0.222,-0.769,0.917,0,0.283,-0.725,0.815,0,0.281,-0.697,0.679,0,0.338,-0.523,0.173,0,0.379,-0.584,1,0,0.253,-0.754,0.875,0,0.301,-0.678,0.857,0
1570,20111108,0.24,-0.976,1,0,0.301,-0.833,1,0,0.3,-0.71,1,0,0.339,-0.668,1,0,0.378,-0.814,1,0,0.271,-0.912,1,0,0.312,-0.772,1,0
1570,20111115,0.222,-1.454,1,0,0.289,-1.433,1,0,0.292,-1.327,1,0,0.34,-1.094,1,0,0.376,-1.273,1,0,0.256,-1.448,1,0,0.304,-1.214,1,0
1570,20111122,0.256,-1.398,0.946,0,0.316,-1.25,0.929,0,0.316,-1.233,0.887,0,0.342,-1.689,1,0,0.376,-1.606,1,0,0.286,-1.325,0.935,0,0.321,-1.425,1,0
1570,20111129,0.385,0.019,0.589,0.345,0.396,0.229,0.524,0.345,0.39,0.209,0.375,0.375,0.401,-0.484,0.601,0.143,0.419,-0.347,0.548,0.315,0.391,0.104,0.577,0.345,0.398,-0.019,0.565,0.345
1570,20111206,0.425,0.435,0.22,0.417,0.415,0.437,0.268,0.435,0.411,0.471,0,0.53,0.418,-0.183,0.399,0.363,0.446,0.611,0,1,0.42,0.435,0.268,0.429,0.423,0.367,0.202,0.435
1570,20111213,0.442,0.523,0.253,0.451,0.424,0.422,0.302,0.444,0.417,0.434,0,0.463,0.421,-0.123,0.296,0.34,0.451,0.779,0,1,0.433,0.467,0.278,0.451,0.431,0.457,0.13,0.451
1570,20111220,0.399,-0.169,0.56,0.107,0.404,-0.086,0.518,0.179,0.402,-0.045,0.232,0.048,0.412,-0.678,0.81,0,0.452,0.68,0,1,0.402,-0.133,0.554,0.113,0.414,-0.088,0.47,0.089
1570,20111227,0.49,1.147,0,0.786,0.457,0.878,0,0.815,0.438,0.737,0,0.863,0.431,0.264,0.006,0.363,0.457,0.823,0,1,0.474,1.026,0,0.798,0.455,0.929,0,0.815
1570,20120103,0.432,0.357,0.238,0.357,0.425,0.33,0.226,0.423,0.421,0.332,0.018,0.452,0.424,-0.047,0.333,0.327,0.461,0.828,0,1,0.429,0.341,0.232,0.405,0.433,0.396,0.137,0.429
1570,20120110,0.413,0.085,0.577,0.31,0.411,0.039,0.577,0.417,0.404,-0.095,0.571,0.304,0.416,-0.475,0.583,0.202,0.461,0.688,0,1,0.412,0.066,0.577,0.333,0.421,0.062,0.577,0.333
1570,20120117,0.438,0.478,0.03,0.405,0.431,0.422,0.018,0.458,0.422,0.36,0,0.399,0.424,-0.033,0.393,0.321,0.463,0.643,0,1,0.435,0.464,0.03,0.405,0.436,0.457,0,0.405
1570,20120124,0.442,0.567,0,0.512,0.439,0.636,0,0.696,0.423,0.504,0,0.5,0.421,-0.069,0.339,0.268,0.464,0.741,0,1,0.44,0.6,0,0.607,0.438,0.572,0,0.577
1570,20120131,0.411,0.131,0.244,0.304,0.424,0.305,0.208,0.482,0.415,0.325,0.024,0.435,0.418,-0.2,0.435,0.137,0.466,0.847,0,1,0.417,0.213,0.244,0.423,0.427,0.275,0.089,0.417
1570,20120207,0.407,0.082,0.357,0.25,0.42,0.253,0.268,0.405,0.413,0.297,0.202,0.375,0.414,-0.345,0.571,0.161,0.466,0.751,0,1,0.414,0.157,0.327,0.304,0.424,0.213,0.214,0.321
1570,20120214,0.361,-0.502,0.857,0,0.386,-0.359,0.631,0.024,0.395,-0.193,0.417,0,0.404,-0.801,1,0,0.467,0.768,0,1,0.374,-0.444,0.827,0,0.403,-0.337,0.595,0
1570,20120221,0.386,-0.237,0.464,0.024,0.411,0.025,0.28,0.214,0.407,0.051,0.036,0.071,0.408,-0.676,0.863,0,0.466,0.724,0,1,0.399,-0.129,0.375,0.083,0.416,-0.069,0.179,0.089
1570,20120228,0.347,-0.763,0.976,0,0.376,-0.592,0.839,0,0.385,-0.482,0.643,0,0.401,-1.004,1,0,0.461,0.439,0,0.649,0.362,-0.692,0.946,0,0.394,-0.612,0.732,0
1570,20120306,0.311,-1.313,1,0,0.356,-0.971,1,0,0.36,-1.077,1,0,0.393,-1.472,1,0,0.442,-0.451,0.857,0,0.334,-1.175,1,0,0.372,-1.186,1,0
1570,20120313,0.394,-0.036,0.357,0.44,0.413,0.138,0.333,0.488,0.401,-0.046,0.333,0.429,0.41,-0.623,0.494,0.244,0.449,-0.121,0.339,0.006,0.404,0.054,0.333,0.47,0.413,-0.087,0.333,0.452
1570,20120320,0.347,-0.88,0.893,0,0.386,-0.359,0.512,0.048,0.39,-0.262,0.399,0,0.408,-0.815,0.935,0,0.457,0.318,0,0.5,0.367,-0.634,0.821,0.024,0.398,-0.49,0.702,0
1570,20120327,0.342,-0.943,0.804,0.131,0.393,-0.183,0.589,0.196,0.389,-0.262,0.536,0.185,0.409,-0.788,0.762,0.119,0.456,0.293,0,0.238,0.368,-0.582,0.732,0.173,0.398,-0.455,0.69,0.173
1570,20120403,0.34,-0.838,0.804,0,0.381,-0.358,0.512,0.03,0.378,-0.506,0.667,0.048,0.401,-1.234,1,0,0.448,-0.09,0,0.03,0.361,-0.629,0.72,0.006,0.39,-0.661,0.786,0
1570,20120410,0.327,-1.006,1,0,0.368,-0.641,1,0,0.364,-0.84,1,0,0.394,-1.574,1,0,0.443,-0.383,0.393,0,0.348,-0.854,1,0,0.379,-0.937,1,0
1570,20120417,0.32,-1.123,0.917,0.012,0.362,-0.767,0.917,0,0.355,-0.969,0.994,0,0.383,-2.029,1,0,0.439,-0.658,1,0,0.341,-0.972,0.905,0,0.372,-1.092,0.976,0
1570,20120424,0.384,-0.086,0.482,0.244,0.405,0.205,0.482,0.321,0.398,0.117,0.482,0.304,0.41,-0.7,0.774,0.143,0.45,-0.04,0.482,0.512,0.395,0.036,0.482,0.274,0.409,-0.017,0.482,0.256
1570,20120501,0.344,-0.556,0.815,0,0.379,-0.262,0.393,0,0.378,-0.198,0.286,0,0.403,-0.828,1,0,0.456,0.331,0,0.601,0.362,-0.438,0.631,0,0.392,-0.364,0.571,0
1570,20120508,0.336,-0.601,0.81,0.185,0.377,-0.228,0.81,0.185,0.37,-0.266,0.81,0.185,0.395,-0.981,0.815,0.113,0.445,-0.177,0.048,0.131,0.357,-0.441,0.81,0.185,0.385,-0.466,0.81,0.185
1570,20120515,0.337,-0.422,0.726,0.024,0.382,0.011,0,0.161,0.379,0.068,0,0.167,0.404,-0.478,0.673,0,0.454,0.325,0,0.613,0.36,-0.234,0.435,0.036,0.391,-0.14,0.226,0.042
1570,20120522,0.345,-0.153,0.381,0.214,0.391,0.319,0.143,0.452,0.384,0.332,0.226,0.446,0.407,-0.251,0.345,0.113,0.451,0.235,0,0.423,0.368,0.046,0.345,0.304,0.395,0.113,0.345,0.357